Location: Newark
(55.4390°N, 25.0170°E)
Time: 18:18:18
(UTC+00:00)

Envisat - Pass Details

Date: 05 March 2021
Orbit: 764 x 766 km, 98.1° (Epoch: 17 April)

Event Time Altitude Azimuth Distance (km) Brightness Sun altitude
Rises 16:44:19 0° 222° (SW) 3,228 6.9 -6.6°
Reaches altitude 10° 16:47:55 10° 248° (WSW) 2,308 6.8 -7.1°
Maximum altitude 16:50:21 13° 277° (W) 2,080 6.8 -7.5°
Drops below altitude 10° 16:52:49 10° 307° (NW) 2,316 6.4 -7.8°
Sets 16:56:27 0° 333° (NNW) 3,249 6.7 -8.3°
